Volver al catálogo

CSO-3

ActivoMilitarSSO
NORAD 63156·PAYLOAD·🇫🇷 France

Lanzado Mar 6, 2025 desde Guiana Space Centre

Loading…

Próximos Pases (próximas 24 horas)

TLE

EnvejeciendoSource: Mike McCants

Época: Sep 5, 2026, 02:02 UTC

1 63156U 25044A   26248.08527496 0.00000000  00000-0  00000-0 0    02
2 63156  98.6196 186.7132 0003136  25.8918 334.1080 14.26737192    07

Sigue CSO-3 en tiempo real con AllMySat

Download on the App Store